KAL1026 RKPC-RKSS

Flight info

Callsign KAL1026
Flight time 0h 53m
Altitude 27000
Route KAMIT2E KAMIT Y722 OLMEN OLMEN2U
Aircraft B738/M-SDE2E3FGHIRWXY/LB1

Departure

Time 2025-09-05 14:16
Airport Jeju International Airport (RKPC)

Arrival

Time 2025-09-05 15:09
Airport Gimpo International Airport (RKSS)
Time Latitude Longitude Altitude Speed Heading
2025-09-05 13:32 33.50640 126.49055 93 ft 0 kts 151°
2025-09-05 13:59 33.50645 126.49052 92 ft 4 kts 150°
2025-09-05 14:00 33.50714 126.49007 93 ft 2 kts 165°
2025-09-05 14:00 33.50734 126.49019 93 ft 0 kts 238°
2025-09-05 14:01 33.50708 126.48968 93 ft 4 kts 238°
2025-09-05 14:01 33.50681 126.48915 94 ft 3 kts 238°
2025-09-05 14:02 33.50664 126.48882 94 ft 2 kts 238°
2025-09-05 14:02 33.50659 126.48872 95 ft 1 kts 238°
2025-09-05 14:02 33.50650 126.48855 94 ft 0 kts 239°
2025-09-05 14:05 33.50643 126.48841 93 ft 5 kts 238°
2025-09-05 14:05 33.50611 126.48781 94 ft 10 kts 238°
2025-09-05 14:06 33.50535 126.48632 96 ft 10 kts 246°
2025-09-05 14:06 33.50613 126.48514 93 ft 10 kts 320°
2025-09-05 14:07 33.50604 126.48419 93 ft 6 kts 239°
2025-09-05 14:08 33.50485 126.48186 92 ft 19 kts 238°
2025-09-05 14:08 33.50317 126.47859 93 ft 25 kts 238°
2025-09-05 14:09 33.50145 126.47520 93 ft 23 kts 239°
2025-09-05 14:09 33.49985 126.47208 95 ft 21 kts 238°
2025-09-05 14:09 33.49911 126.47066 94 ft 19 kts 237°
2025-09-05 14:10 33.49904 126.46927 93 ft 0 kts 329°
2025-09-05 14:12 33.49905 126.46926 93 ft 1 kts 329°
2025-09-05 14:13 33.49982 126.46877 94 ft 9 kts 347°
2025-09-05 14:13 33.50047 126.46951 92 ft 0 kts 58°
2025-09-05 14:14 33.50130 126.47114 93 ft 59 kts 58°
2025-09-05 14:14 33.50472 126.47782 92 ft 126 kts 59°
2025-09-05 14:14 33.51621 126.50188 659 ft 192 kts 62°
2025-09-05 14:15 33.53320 126.52792 2003 ft 201 kts 43°
2025-09-05 14:16 33.56442 126.56059 4044 ft 217 kts 43°
2025-09-05 14:16 33.58873 126.58677 4603 ft 253 kts 43°
2025-09-05 14:17 33.61606 126.61670 5140 ft 269 kts 43°
2025-09-05 14:17 33.64385 126.64741 6134 ft 276 kts 43°
2025-09-05 14:17 33.65804 126.66314 6615 ft 279 kts 43°
2025-09-05 14:18 33.68671 126.69499 7550 ft 282 kts 43°
2025-09-05 14:18 33.72089 126.71617 8495 ft 282 kts
2025-09-05 14:19 33.76033 126.72029 9506 ft 287 kts
2025-09-05 14:20 33.82081 126.72600 10917 ft 300 kts
2025-09-05 14:20 33.86406 126.73041 11905 ft 320 kts
2025-09-05 14:21 33.90937 126.73515 12896 ft 338 kts
2025-09-05 14:21 33.95738 126.74021 13903 ft 354 kts
2025-09-05 14:21 33.98218 126.74283 14362 ft 361 kts
2025-09-05 14:22 34.03321 126.74829 15290 ft 375 kts
2025-09-05 14:22 34.07690 126.75297 16078 ft 384 kts
2025-09-05 14:23 34.13078 126.75875 17058 ft 393 kts
2025-09-05 14:24 34.21352 126.76764 18512 ft 402 kts
2025-09-05 14:24 34.26954 126.77365 19413 ft 406 kts
2025-09-05 14:25 34.33540 126.78060 20471 ft 411 kts
2025-09-05 14:25 34.38318 126.78563 21266 ft 413 kts
2025-09-05 14:25 34.41186 126.78866 21747 ft 414 kts
2025-09-05 14:26 34.46938 126.79475 22734 ft 415 kts
2025-09-05 14:26 34.52700 126.80086 23710 ft 416 kts
2025-09-05 14:27 34.58471 126.80699 24568 ft 416 kts
2025-09-05 14:29 34.78724 126.82857 26972 ft 431 kts
2025-09-05 14:30 35.00806 126.85221 26983 ft 474 kts
2025-09-05 14:33 35.31103 126.88501 26979 ft 495 kts
2025-09-05 14:34 35.55196 126.91135 26971 ft 496 kts
2025-09-05 14:37 35.86061 126.94521 26959 ft 494 kts
2025-09-05 14:38 36.08959 126.97071 25427 ft 466 kts
2025-09-05 14:39 36.15415 126.97794 24591 ft 461 kts
2025-09-05 14:40 36.24756 126.98843 23252 ft 442 kts
2025-09-05 14:40 36.30842 126.99527 22007 ft 436 kts
2025-09-05 14:40 36.33860 126.99866 21406 ft 433 kts
2025-09-05 14:41 36.39826 127.00447 20231 ft 426 kts 358°
2025-09-05 14:41 36.45705 127.00226 19110 ft 419 kts 355°
2025-09-05 14:42 36.51488 126.99914 17989 ft 414 kts 355°
2025-09-05 14:42 36.57208 126.99692 16749 ft 408 kts 356°
2025-09-05 14:43 36.62805 126.99494 16044 ft 391 kts 356°
2025-09-05 14:44 36.70501 126.99220 15926 ft 349 kts 355°
2025-09-05 14:44 36.75472 126.99036 15944 ft 369 kts 355°
2025-09-05 14:44 36.78059 126.98938 15946 ft 373 kts 355°
2025-09-05 14:45 36.85790 126.98652 15929 ft 369 kts 355°
2025-09-05 14:45 36.88352 126.98561 15924 ft 368 kts 355°
2025-09-05 14:46 36.93471 126.98722 15894 ft 374 kts 12°
2025-09-05 14:47 36.99269 127.05059 15225 ft 379 kts 58°
2025-09-05 14:47 37.00601 127.07907 14999 ft 379 kts 60°
2025-09-05 14:48 37.04447 127.16457 14289 ft 377 kts 64°
2025-09-05 14:48 37.06372 127.22633 13364 ft 381 kts 71°
2025-09-05 14:48 37.07254 127.25745 12860 ft 378 kts 71°
2025-09-05 14:49 37.09925 127.34655 11975 ft 337 kts 69°
2025-09-05 14:49 37.10739 127.37303 11962 ft 317 kts 69°
2025-09-05 14:50 37.12552 127.42190 11969 ft 310 kts 47°
2025-09-05 14:50 37.16316 127.44454 11983 ft 306 kts
2025-09-05 14:51 37.20586 127.44462 11980 ft 307 kts 353°
2025-09-05 14:52 37.25451 127.40239 11982 ft 289 kts 302°
2025-09-05 14:52 37.26588 127.38162 11986 ft 288 kts 301°
2025-09-05 14:52 37.28846 127.34003 11974 ft 288 kts 301°
2025-09-05 14:53 37.31120 127.29859 11975 ft 288 kts 301°
2025-09-05 14:53 37.33414 127.25703 11981 ft 291 kts 302°
2025-09-05 14:54 37.35729 127.21511 11979 ft 292 kts 301°
2025-09-05 14:54 37.37061 127.16807 11647 ft 288 kts 280°
2025-09-05 14:55 37.37912 127.11905 10683 ft 285 kts 280°
2025-09-05 14:56 37.39200 127.04708 9257 ft 278 kts 280°
2025-09-05 14:56 37.39620 127.02384 8773 ft 275 kts 280°
2025-09-05 14:57 37.40890 126.95433 8022 ft 270 kts 280°
2025-09-05 14:57 37.41310 126.93140 8002 ft 267 kts 281°
2025-09-05 14:57 37.42715 126.88784 7997 ft 271 kts 292°
2025-09-05 14:58 37.44289 126.84481 8002 ft 271 kts 291°
2025-09-05 14:58 37.45820 126.80145 7987 ft 271 kts 289°
2025-09-05 14:59 37.47103 126.75677 7585 ft 271 kts 286°
2025-09-05 15:00 37.48833 126.69156 6937 ft 250 kts 278°
2025-09-05 15:00 37.49310 126.64727 6003 ft 256 kts 274°
2025-09-05 15:00 37.49535 126.62505 5516 ft 256 kts 274°
2025-09-05 15:01 37.50800 126.58349 4534 ft 264 kts 308°
2025-09-05 15:01 37.53364 126.55129 3990 ft 248 kts 312°
2025-09-05 15:02 37.55896 126.52502 3957 ft 233 kts 339°
2025-09-05 15:02 37.58937 126.53237 3968 ft 229 kts 39°
2025-09-05 15:03 37.61232 126.56046 3985 ft 233 kts 46°
2025-09-05 15:04 37.64683 126.60448 3644 ft 237 kts 46°
2025-09-05 15:04 37.66796 126.63498 3127 ft 225 kts 75°
2025-09-05 15:04 37.66787 126.65372 2794 ft 213 kts 117°
2025-09-05 15:05 37.64735 126.67739 2224 ft 198 kts 143°
2025-09-05 15:05 37.62764 126.70044 1701 ft 188 kts 139°
2025-09-05 15:06 37.60983 126.72296 1219 ft 171 kts 137°
2025-09-05 15:06 37.59388 126.74312 776 ft 158 kts 136°
2025-09-05 15:07 37.57825 126.76293 408 ft 163 kts 135°
2025-09-05 15:08 37.55671 126.79009 57 ft 89 kts 135°
2025-09-05 15:08 37.55494 126.79267 60 ft 30 kts 116°
2025-09-05 15:08 37.55451 126.79432 75 ft 5 kts 103°
2025-09-05 15:09 37.55427 126.79560 62 ft 7 kts 98°
2025-09-05 15:09 37.55439 126.79619 63 ft 7 kts 68°
2025-09-05 15:10 37.55497 126.79736 63 ft 11 kts 62°
2025-09-05 15:10 37.55453 126.79941 61 ft 13 kts 102°
2025-09-05 15:11 37.55448 126.80147 61 ft 12 kts 62°
2025-09-05 15:11 37.55558 126.80292 56 ft 11 kts 46°
2025-09-05 15:12 37.55640 126.80283 61 ft 7 kts 311°
2025-09-05 15:12 37.55704 126.80202 66 ft 6 kts 315°
2025-09-05 15:13 37.55765 126.80125 65 ft 6 kts 315°
2025-09-05 15:13 37.55824 126.80051 63 ft 6 kts 314°
2025-09-05 15:14 37.55893 126.80048 64 ft 6 kts 43°
2025-09-05 15:14 37.55934 126.80103 66 ft 0 kts 46°